Location: Staunton
(38.1490°N, 79.0720°W)
Time: 03:27:41
(UTC-04:00)

ISS - Pass Details

Date: 20 September 2017
Orbit: 401 x 407 km, 51.6° (Epoch: 23 September)

Event Time Altitude Azimuth Distance (km) Brightness Sun altitude
Exits shadow 04:26:59 14° 68° (ENE) 1,267 -0.5 -30.1°
Drops below altitude 10° 04:27:41 10° 77° (ENE) 1,465 -0.2 -30.0°
Sets 04:30:07 0° 95° (E) 2,322 0.8 -29.6°
